WX4F Weather Reports


time (UTC)temp
F
wind
direction
speed
knots
gust
knots
rain 1hr
in
rain 24hr
in
rain mn
in
humidity
%
barometer
mb
20260510183503 81 231 0.9 2.6 0.00 0.00 0.00 33 1015.9
20260510183003 81 54 0.9 2.6 0.00 0.00 0.00 34 1015.9
20260510182503 81 90 0.9 2.6 0.00 0.00 0.00 34 1016.0
20260510182003 81 225 1.7 2.6 0.00 0.00 0.00 35 1016.1
20260510181503 81 281 0.9 1.7 0.00 0.00 0.00 34 1016.0
20260510181003 81 234 0.9 2.6 0.00 0.00 0.00 36 1016.0
20260510180004 81 150 0.9 2.6 0.00 0.00 0.00 35 1016.0
20260510175503 81 210 1.7 2.6 0.00 0.00 0.00 34 1016.1
20260510175003 81 227 0.9 2.6 0.00 0.00 0.00 34 1016.3
20260510174503 80 124 0.0 2.6 0.00 0.00 0.00 36 1016.4
20260510174004 81 128 0.9 2.6 0.00 0.00 0.00 38 1016.3
20260510173504 81 176 0.9 2.6 0.00 0.00 0.00 37 1016.3
20260510172505 80 178 0.0 1.7 0.00 0.00 0.00 37 1016.5
20260510172004 81 147 0.0 2.6 0.00 0.00 0.00 37 1016.6
20260510171004 80 83 0.0 2.6 0.00 0.00 0.00 36 1016.6
20260510170504 80 171 0.0 1.7 0.00 0.00 0.00 37 1016.6
20260510170003 80 144 0.9 2.6 0.00 0.00 0.00 35 1016.6
20260510165503 79 348 0.0 0.9 0.00 0.00 0.00 33 1016.6
20260510165004 80 348 0.9 2.6 0.00 0.00 0.00 36 1016.7
20260510164504 80 14 0.0 1.7 0.00 0.00 0.00 38 1016.7
20260510164003 80 66 0.0 0.9 0.00 0.00 0.00 37 1016.7
20260510163504 81 66 0.0 0.9 0.00 0.00 0.00 39 1016.7
20260510162504 79 66 0.0 1.7 0.00 0.00 0.00 36 1016.8
20260510162004 78 12 0.0 2.6 0.00 0.00 0.00 36 1016.9
20260510161504 79 118 0.0 1.7 0.00 0.00 0.00 40 1016.8
20260510161004 79 124 0.0 1.7 0.00 0.00 0.00 45 1016.9
20260510160004 79 117 0.9 2.6 0.00 0.00 0.00 47 1016.9
20260510155504 79 150 0.9 4.3 0.00 0.00 0.00 43 1016.9
20260510155003 79 163 0.0 1.7 0.00 0.00 0.00 44 1016.9
20260510154004 77 146 0.0 0.9 0.00 0.00 0.00 51 1017.1
20260510153504 77 146 0.9 2.6 0.00 0.00 0.00 49 1017.1
20260510153004 77 138 0.0 1.7 0.00 0.00 0.00 48 1017.2
20260510152505 77 205 0.0 0.9 0.00 0.00 0.00 53 1017.2
20260510152003 76 196 0.0 1.7 0.00 0.00 0.00 52 1017.2
20260510151504 75 184 0.9 1.7 0.00 0.00 0.00 55 1017.3
20260510151003 76 183 0.0 0.9 0.00 0.00 0.00 57 1017.3
20260510150504 75 186 0.0 0.9 0.00 0.00 0.00 60 1017.3
20260510145503 74 186 0.0 1.7 0.00 0.00 0.00 60 1017.4
20260510145005 73 178 0.0 0.0 0.00 0.00 0.00 61 1017.3
20260510144503 74 176 0.9 1.7 0.00 0.00 0.00 56 1017.3
20260510144003 74 103 0.0 0.9 0.00 0.00 0.00 61 1017.3
20260510143503 73 101 0.0 0.9 0.00 0.00 0.00 61 1017.3
20260510143004 72 103 0.0 0.0 0.00 0.00 0.00 62 1017.3
20260510142504 72 103 0.0 0.0 0.00 0.00 0.00 62 1017.4
20260510142004 72 103 0.0 0.0 0.00 0.00 0.00 62 1017.5
20260510141504 71 103 0.9 1.7 0.00 0.00 0.00 63 1017.5
20260510140504 70 103 0.0 0.0 0.00 0.00 0.00 67 1017.5
20260510140004 69 103 0.0 1.7 0.00 0.00 0.00 71 1017.5
20260510135503 70 67 0.0 0.0 0.00 0.00 0.00 72 1017.5
20260510135003 69 67 0.0 0.0 0.00 0.00 0.00 72 1017.6
20260510134003 67 67 0.0 0.0 0.00 0.00 0.00 73 1017.6
20260510133503 66 67 0.0 0.0 0.00 0.00 0.00 74 1017.6
20260510133004 66 67 0.0 0.0 0.00 0.00 0.00 79 1017.5
20260510132004 64 67 0.0 0.0 0.00 0.00 0.00 82 1017.6
20260510131504 64 67 0.0 0.0 0.00 0.00 0.00 84 1017.5
20260510131004 63 67 0.0 0.0 0.00 0.00 0.00 87 1017.5
20260510130004 60 67 0.0 0.0 0.00 0.00 0.00 94 1017.4
20260510125504 59 67 0.0 0.0 0.00 0.00 0.00 93 1017.3
20260510125005 59 67 0.0 0.0 0.00 0.00 0.00 94 1017.4
20260510124503 58 67 0.0 0.0 0.00 0.00 0.00 94 1017.3
20260510124004 57 67 0.0 0.0 0.00 0.00 0.00 95 1017.4
20260510123504 56 67 0.0 0.0 0.00 0.00 0.00 95 1017.3
20260510123004 55 67 0.0 0.0 0.00 0.00 0.00 96 1017.2
20260510122504 54 67 0.0 0.0 0.00 0.00 0.00 96 1017.2
20260510122004 54 67 0.0 0.0 0.00 0.00 0.00 96 1017.2
20260510121504 53 67 0.0 0.0 0.00 0.00 0.00 96 1017.2
20260510121004 52 67 0.0 0.0 0.00 0.00 0.00 97 1017.0
20260510120504 52 67 0.0 0.0 0.00 0.00 0.00 97 1016.9
20260510115504 51 67 0.0 0.0 0.00 0.00 0.00 96 1016.7
20260510115003 51 67 0.0 0.0 0.00 0.00 0.00 96 1016.5
20260510114504 51 67 0.0 0.0 0.00 0.00 0.00 97 1016.5
20260510114005 50 67 0.0 0.0 0.00 0.00 0.00 96 1016.3
20260510113504 50 67 0.0 0.0 0.00 0.00 0.00 96 1016.3
20260510112504 50 67 0.0 0.0 0.00 0.00 0.00 96 1015.9
20260510112003 50 67 0.0 0.0 0.00 0.00 0.00 96 1015.9
20260510111503 49 67 0.0 0.0 0.00 0.00 0.00 96 1015.8
20260510110004 49 67 0.0 0.0 0.00 0.00 0.00 96 1015.6
20260510105504 49 67 0.0 0.0 0.00 0.00 0.00 96 1015.6
20260510105004 49 67 0.0 0.0 0.00 0.00 0.00 96 1015.6
20260510104504 49 67 0.0 0.0 0.00 0.00 0.00 96 1015.6
20260510104004 49 67 0.0 0.0 0.00 0.00 0.00 96 1015.4
20260510102503 50 67 0.0 0.0 0.00 0.00 0.00 96 1015.1
20260510102004 50 67 0.0 0.0 0.00 0.00 0.00 96 1015.1
20260510101504 50 67 0.0 0.0 0.00 0.00 0.00 96 1015.0
20260510101004 51 67 0.0 0.0 0.00 0.00 0.00 96 1015.0
20260510100503 51 67 0.0 0.0 0.00 0.00 0.00 96 1015.0
20260510095504 51 67 0.0 0.0 0.00 0.00 0.00 96 1014.9
20260510094504 51 67 0.0 0.0 0.00 0.00 0.00 96 1014.7
20260510094004 51 67 0.0 0.0 0.00 0.00 0.00 96 1014.7
20260510093503 51 67 0.0 0.0 0.00 0.00 0.00 96 1014.7
20260510093004 51 67 0.0 0.0 0.00 0.00 0.00 96 1014.6
20260510092504 51 67 0.0 0.0 0.00 0.00 0.00 96 1014.6
20260510092004 51 67 0.0 0.0 0.00 0.00 0.00 96 1014.6
20260510091504 51 67 0.0 0.0 0.00 0.00 0.00 96 1014.6
20260510091004 52 67 0.0 0.0 0.00 0.00 0.00 96 1014.5
20260510090005 52 67 0.0 0.0 0.00 0.00 0.00 95 1014.5
20260510085504 52 67 0.0 0.0 0.00 0.00 0.00 95 1014.4
20260510084504 52 67 0.0 0.0 0.00 0.00 0.00 96 1014.3
20260510084003 53 67 0.0 0.0 0.00 0.00 0.00 95 1014.2
20260510083503 53 67 0.0 0.0 0.00 0.00 0.00 96 1014.2
20260510083004 53 67 0.0 0.0 0.00 0.00 0.00 95 1014.1
20260510082505 53 67 0.0 0.0 0.00 0.00 0.00 95 1013.9
20260510082004 53 67 0.0 0.0 0.00 0.00 0.00 95 1013.9
20260510081504 53 67 0.0 0.0 0.00 0.00 0.00 96 1013.8
20260510081005 54 67 0.0 0.0 0.00 0.00 0.00 95 1013.8
20260510080504 54 67 0.0 0.0 0.00 0.00 0.00 95 1013.7
20260510080004 54 67 0.0 0.0 0.00 0.00 0.00 95 1013.7
20260510075504 54 67 0.0 0.0 0.00 0.00 0.00 96 1013.7
20260510074504 54 67 0.0 0.0 0.00 0.00 0.00 95 1013.6
20260510074004 54 67 0.0 0.0 0.00 0.00 0.00 95 1013.6
20260510073504 55 67 0.0 0.0 0.00 0.00 0.00 95 1013.6
20260510072504 55 67 0.0 0.0 0.00 0.00 0.00 95 1013.7
20260510072004 55 67 0.0 0.0 0.00 0.00 0.00 95 1013.6
20260510071504 55 67 0.0 0.0 0.00 0.00 0.00 95 1013.4
20260510071004 55 67 0.0 0.0 0.00 0.00 0.00 95 1013.4
20260510070504 55 67 0.0 0.0 0.00 0.00 0.00 95 1013.4
20260510070004 55 67 0.0 0.0 0.00 0.00 0.00 95 1013.5
20260510065504 56 67 0.0 0.0 0.00 0.00 0.00 95 1013.5
20260510065004 56 67 0.0 0.0 0.00 0.00 0.00 95 1013.5
20260510064504 56 67 0.0 0.0 0.00 0.00 0.00 95 1013.6
20260510063504 56 67 0.0 0.0 0.00 0.00 0.00 95 1013.3
20260510063004 56 67 0.0 0.0 0.00 0.00 0.00 95 1013.2
20260510062504 57 67 0.0 0.0 0.00 0.00 0.00 95 1013.3
20260510062003 57 67 0.0 0.0 0.00 0.00 0.00 95 1013.4
20260510061004 57 67 0.0 0.0 0.00 0.00 0.00 95 1013.5
20260510060004 57 67 0.0 0.0 0.00 0.00 0.00 95 1013.5
20260510055503 57 67 0.0 0.0 0.00 0.00 0.00 94 1013.5
20260510055003 57 67 0.0 0.0 0.00 0.00 0.00 94 1013.5
20260510054504 58 67 0.0 0.0 0.00 0.00 0.00 94 1013.5
20260510054003 58 67 0.0 0.0 0.00 0.00 0.00 94 1013.6
20260510053004 58 67 0.0 0.0 0.00 0.00 0.00 94 1013.6
20260510052504 58 67 0.0 0.0 0.00 0.00 0.00 94 1013.7
20260510052004 58 67 0.0 0.0 0.00 0.00 0.00 94 1013.8
20260510051504 58 67 0.0 0.0 0.00 0.00 0.00 94 1013.8
20260510050504 59 67 0.0 0.0 0.00 0.00 0.00 93 1013.8
20260510045503 60 67 0.0 0.0 0.00 0.00 0.00 93 1013.7
20260510044504 60 67 0.0 0.0 0.00 0.00 0.00 92 1013.8
20260510044004 60 67 0.0 0.0 0.00 0.00 0.00 92 1013.7
20260510043503 61 67 0.0 0.0 0.00 0.00 0.00 92 1013.8
20260510043004 61 67 0.0 0.0 0.00 0.00 0.00 91 1013.9
20260510042504 61 67 0.0 0.0 0.00 0.00 0.00 91 1013.8
20260510042003 61 67 0.0 0.0 0.00 0.00 0.00 91 1013.8
20260510041504 61 67 0.0 0.0 0.00 0.00 0.00 90 1013.8
20260510041004 62 67 0.0 0.0 0.00 0.00 0.00 90 1013.7
20260510040504 62 67 0.0 0.0 0.00 0.00 0.00 90 1013.7
20260510040004 62 67 0.0 0.0 0.00 0.00 0.00 89 1013.7
20260510035504 63 67 0.0 0.0 0.00 0.00 0.00 89 1013.8
20260510034504 63 67 0.0 0.0 0.00 0.00 0.00 88 1013.8
20260510034004 63 67 0.0 0.0 0.00 0.00 0.00 89 1013.8
20260510033503 63 67 0.0 0.0 0.00 0.00 0.00 88 1013.7
20260510033004 63 67 0.0 0.0 0.00 0.00 0.00 88 1013.8
20260510032504 63 67 0.0 0.0 0.00 0.00 0.00 87 1013.9
20260510032004 64 67 0.0 0.0 0.00 0.00 0.00 87 1014.0
20260510031504 64 67 0.0 0.0 0.00 0.00 0.00 87 1013.9
20260510031004 64 67 0.0 0.0 0.00 0.00 0.00 87 1013.9
20260510030004 64 67 0.0 0.0 0.00 0.00 0.00 86 1013.9
20260510025503 64 67 0.0 0.0 0.00 0.00 0.00 85 1013.8
20260510025004 65 67 0.0 0.0 0.00 0.00 0.00 85 1013.7
20260510024504 65 67 0.0 0.0 0.00 0.00 0.00 85 1013.7
20260510023504 65 67 0.0 0.0 0.00 0.00 0.00 84 1013.6
20260510023004 65 67 0.0 0.0 0.00 0.00 0.00 84 1013.5
20260510022504 66 67 0.0 0.0 0.00 0.00 0.00 83 1013.4
20260510022004 66 67 0.0 0.0 0.00 0.00 0.00 82 1013.3
20260510021503 66 67 0.0 0.0 0.00 0.00 0.00 81 1013.3
20260510021004 67 67 0.0 0.0 0.00 0.00 0.00 81 1013.1
20260510020504 67 67 0.0 0.0 0.00 0.00 0.00 81 1013.0
20260510020004 67 61 0.0 0.9 0.00 0.00 0.00 80 1013.0
20260510015504 67 163 0.0 1.7 0.00 0.00 0.00 80 1013.0
20260510015003 67 65 0.0 0.0 0.00 0.00 0.00 80 1012.9
20260510014004 67 200 0.0 0.9 0.00 0.00 0.00 80 1012.8
20260510013503 67 200 0.0 0.0 0.00 0.00 0.00 80 1012.7
20260510013004 67 267 0.0 0.0 0.00 0.00 0.00 81 1012.6
20260510012503 66 267 0.0 0.0 0.00 0.00 0.00 82 1012.6
20260510012003 66 267 0.0 0.0 0.00 0.00 0.00 83 1012.4
20260510011504 65 267 0.0 1.7 0.00 0.00 0.00 83 1012.4
20260510011003 65 262 0.0 0.0 0.00 0.00 0.00 83 1012.4
20260510010504 65 262 0.0 0.0 0.00 0.00 0.00 83 1012.1
20260510010004 66 262 0.0 0.0 0.00 0.00 0.00 83 1012.0
20260510005004 66 262 0.0 0.0 0.00 0.00 0.00 81 1012.0
20260510004503 67 262 0.0 0.0 0.00 0.00 0.00 80 1011.9
20260510004003 67 262 0.0 0.0 0.00 0.00 0.00 79 1011.7
20260510003004 68 270 0.0 0.9 0.00 0.00 0.00 78 1011.5
20260510002503 68 270 0.0 0.0 0.00 0.00 0.00 78 1011.5
20260510001004 69 270 0.0 0.0 0.00 0.00 0.00 74 1011.6
20260510000503 69 270 0.0 0.0 0.00 0.00 0.00 74 1011.6
20260510000004 70 270 0.0 0.0 0.00 0.00 0.00 73 1011.4
20260509235504 70 270 0.0 0.0 0.00 0.00 0.00 72 1011.4
20260509235004 70 270 0.0 0.9 0.00 0.00 0.00 72 1011.4
20260509234504 70 259 0.0 0.0 0.00 0.00 0.00 72 1011.4
20260509234004 71 259 0.0 0.9 0.00 0.00 0.00 71 1011.3
20260509233504 71 213 0.0 0.0 0.00 0.00 0.00 70 1011.2
20260509233004 71 209 0.0 0.0 0.00 0.00 0.00 69 1011.2
20260509232505 72 211 0.0 1.7 0.00 0.00 0.00 69 1011.1
20260509232003 72 194 0.0 1.7 0.00 0.00 0.00 70 1010.9
20260509231504 72 182 0.0 0.9 0.00 0.00 0.00 68 1010.9
20260509231004 71 179 0.0 0.9 0.00 0.00 0.00 69 1010.8
20260509230504 71 180 0.0 0.9 0.00 0.00 0.00 68 1011.0
20260509230003 71 168 0.0 0.9 0.00 0.00 0.00 69 1010.7
20260509225504 72 146 0.0 0.0 0.00 0.00 0.00 68 1010.6
20260509225003 72 175 0.0 0.9 0.00 0.00 0.00 68 1010.5
20260509224004 72 163 0.0 0.9 0.00 0.00 0.00 67 1010.5
20260509223503 72 162 0.0 0.9 0.00 0.00 0.00 66 1010.4
20260509222503 72 96 0.0 0.0 0.00 0.00 0.00 64 1010.6
20260509222004 73 96 0.0 0.9 0.00 0.00 0.00 63 1010.5
20260509221504 73 93 0.0 0.0 0.00 0.00 0.00 64 1010.4
20260509221004 73 93 0.0 0.9 0.00 0.00 0.00 65 1010.5
20260509220504 73 93 0.0 1.7 0.00 0.00 0.00 64 1010.5
20260509220004 73 178 0.0 0.9 0.00 0.00 0.00 64 1010.3
20260509214504 74 151 0.0 0.9 0.00 0.00 0.00 64 1010.5
20260509214003 74 143 0.0 1.7 0.00 0.00 0.00 63 1010.4
20260509213504 74 209 0.0 1.7 0.00 0.00 0.00 62 1010.3
20260509213004 73 247 0.0 0.9 0.00 0.00 0.00 65 1010.2
20260509211503 72 145 0.0 1.7 0.00 0.00 0.00 64 1010.5
20260509211004 72 273 0.0 0.0 0.00 0.00 0.00 66 1010.4
20260509210503 72 274 0.0 0.9 0.00 0.00 0.00 65 1010.3
20260509210004 72 63 0.0 0.9 0.00 0.00 0.00 65 1010.2
20260509205503 72 322 0.0 0.9 0.00 0.00 0.00 65 1010.1
20260509205004 73 338 0.0 0.9 0.00 0.00 0.00 63 1010.1
20260509204503 73 283 0.0 0.9 0.00 0.00 0.00 63 1010.0
20260509204003 74 162 0.0 0.9 0.00 0.00 0.00 61 1010.1
20260509203504 74 245 0.9 2.6 0.00 0.00 0.00 61 1010.2
20260509203004 73 247 0.0 2.6 0.00 0.00 0.00 61 1010.3
20260509202503 74 220 0.9 5.2 0.00 0.00 0.00 61 1010.3
20260509202004 74 217 0.0 0.9 0.00 0.00 0.00 60 1010.3
20260509201504 74 183 0.0 0.9 0.00 0.00 0.00 59 1010.3
20260509201003 74 265 0.0 0.9 0.00 0.00 0.00 60 1010.3
20260509200504 74 298 0.9 2.6 0.00 0.00 0.00 59 1010.3
20260509200004 74 288 0.9 2.6 0.00 0.00 0.00 60 1010.4
20260509195504 74 239 0.9 2.6 0.00 0.00 0.00 58 1010.4
20260509195004 73 250 0.0 2.6 0.00 0.00 0.00 57 1010.4
20260509194504 73 193 0.0 1.7 0.00 0.00 0.00 57 1010.5
20260509194004 73 140 0.9 1.7 0.00 0.00 0.00 59 1010.7
20260509193503 74 91 1.7 7.8 0.00 0.00 0.00 58 1010.8
20260509193005 73 189 0.9 2.6 0.00 0.00 0.00 60 1010.9
20260509192504 73 209 1.7 5.2 0.00 0.00 0.00 58 1010.8
20260509192003 73 252 0.9 5.2 0.00 0.00 0.00 58 1010.8
20260509191504 74 161 0.9 2.6 0.00 0.00 0.00 56 1010.9
20260509191004 73 228 0.9 2.6 0.00 0.00 0.00 60 1010.9
20260509190505 74 151 0.9 2.6 0.00 0.00 0.00 59 1010.8